N2PUI Weather Reports


time (UTC)temp
F
wind
direction
speed
knots
gust
knots
rain 1hr
in
rain 24hr
in
rain mn
in
humidity
%
barometer
mb
20260502235914 43 210 1.7 1.7 0.00 0.00 0.00 56 1013.8
20260502235411 44 296 4.3 5.2 0.00 0.00 0.00 56 1013.8
20260502234909 44 288 2.6 4.3 0.00 0.00 0.00 56 1013.8
20260502234405 44 210 0.9 1.7 0.00 0.00 0.00 56 1013.7
20260502233902 44 6 2.6 2.6 0.00 0.00 0.00 55 1013.9
20260502233357 44 323 2.6 4.3 0.00 0.00 0.00 55 1013.7
20260502232855 44 179 0.9 0.9 0.00 0.00 0.00 54 1013.4
20260502232351 44 189 1.7 1.7 0.00 0.00 0.00 54 1013.8
20260502231848 44 260 0.9 1.7 0.00 0.00 0.00 53 1013.7
20260502231346 44 237 2.6 2.6 0.00 0.00 0.00 53 1013.8
20260502230844 45 226 0.9 1.7 0.00 0.00 0.00 54 1013.5
20260502230342 45 289 0.9 0.9 0.00 0.00 0.00 54 1013.5
20260502225838 45 276 2.6 2.6 0.00 0.00 0.00 52 1013.4
20260502225335 45 275 2.6 4.3 0.00 0.00 0.00 52 1013.4
20260502224832 45 203 0.9 0.9 0.00 0.00 0.00 52 1013.1
20260502224328 45 250 1.7 2.6 0.00 0.00 0.00 51 1013.0
20260502223825 45 300 2.6 4.3 0.00 0.00 0.00 51 1013.5
20260502223323 45 241 2.6 4.3 0.00 0.00 0.00 50 1013.4
20260502222821 46 309 2.6 2.6 0.00 0.00 0.00 51 1013.3
20260502222318 46 273 0.9 1.7 0.00 0.00 0.00 51 1013.4
20260502221813 46 82 1.7 1.7 0.00 0.00 0.00 52 1013.1
20260502221304 46 299 4.3 5.2 0.00 0.00 0.00 50 1013.3
20260502220802 46 11 2.6 4.3 0.00 0.00 0.00 51 1013.0
20260502220257 46 229 0.9 0.9 0.00 0.00 0.00 51 1013.3
20260502215754 46 278 3.5 7.8 0.00 0.00 0.00 51 1013.3
20260502215251 46 259 1.7 2.6 0.00 0.00 0.00 49 1012.9
20260502214748 47 252 2.6 4.3 0.00 0.00 0.00 51 1013.0
20260502214245 46 243 2.6 2.6 0.00 0.00 0.00 50 1013.1
20260502213742 46 239 2.6 4.3 0.00 0.00 0.00 51 1013.3
20260502213240 46 200 0.0 0.9 0.00 0.00 0.00 52 1013.1
20260502212739 46 223 2.6 2.6 0.00 0.00 0.00 51 1013.0
20260502212236 46 238 1.7 1.7 0.00 0.00 0.00 52 1013.1
20260502211732 46 199 0.0 0.9 0.00 0.00 0.00 51 1013.3
20260502211229 46 228 1.7 1.7 0.00 0.00 0.00 50 1013.0
20260502210726 46 199 0.0 0.9 0.00 0.00 0.00 52 1013.0
20260502210223 46 302 2.6 4.3 0.00 0.00 0.00 51 1013.4
20260502205721 46 310 4.3 4.3 0.00 0.00 0.00 50 1013.4
20260502205216 46 323 3.5 4.3 0.00 0.00 0.00 51 1013.3
20260502204714 47 265 3.5 5.2 0.00 0.00 0.00 51 1013.4
20260502204212 46 298 2.6 4.3 0.00 0.00 0.00 51 1013.4
20260502203709 46 233 3.5 5.2 0.00 0.00 0.00 51 1013.0
20260502203206 47 314 1.7 2.6 0.00 0.00 0.00 51 1013.3
20260502202700 46 199 0.9 0.9 0.00 0.00 0.00 50 1013.6
20260502202159 46 171 1.7 1.7 0.00 0.00 0.00 51 1013.6
20260502201656 46 241 3.5 4.3 0.00 0.00 0.00 49 1013.1
20260502201153 46 224 0.9 1.7 0.00 0.00 0.00 48 1013.5
20260502200648 46 315 4.3 5.2 0.00 0.00 0.00 49 1013.7
20260502200145 46 313 2.6 2.6 0.00 0.00 0.00 48 1013.6
20260502195643 47 304 5.2 6.1 0.00 0.00 0.00 48 1013.7
20260502195139 47 293 3.5 4.3 0.00 0.00 0.00 48 1013.7
20260502194636 47 283 1.7 1.7 0.00 0.00 0.00 47 1013.7
20260502194133 47 207 0.9 1.7 0.00 0.00 0.00 49 1013.7
20260502193629 47 258 1.7 1.7 0.00 0.00 0.00 48 1013.9
20260502193127 46 320 4.3 5.2 0.00 0.00 0.00 47 1013.9
20260502192622 47 289 2.6 2.6 0.00 0.00 0.00 48 1013.8
20260502192120 47 309 5.2 7.0 0.00 0.00 0.00 46 1013.7
20260502191616 47 287 4.3 6.1 0.00 0.00 0.00 46 1014.1
20260502191114 47 347 2.6 2.6 0.00 0.00 0.00 46 1013.7
20260502190611 47 261 4.3 5.2 0.00 0.00 0.00 45 1013.6
20260502190109 47 291 3.5 5.2 0.00 0.00 0.00 46 1013.9
20260502185603 48 294 4.3 6.1 0.00 0.00 0.00 45 1013.8
20260502185100 48 215 1.7 1.7 0.00 0.00 0.00 45 1013.9
20260502184556 48 271 1.7 1.7 0.00 0.00 0.00 45 1013.8
20260502184051 48 154 0.0 0.0 0.00 0.00 0.00 46 1013.9
20260502183548 48 114 0.0 0.0 0.00 0.00 0.00 45 1013.7
20260502183044 48 195 0.9 1.7 0.00 0.00 0.00 44 1014.0
20260502182540 48 186 0.9 1.7 0.00 0.00 0.00 46 1014.0
20260502182036 47 210 0.9 1.7 0.00 0.00 0.00 45 1014.0
20260502181534 47 230 2.6 2.6 0.00 0.00 0.00 46 1014.1
20260502181032 47 239 2.6 2.6 0.00 0.00 0.00 45 1014.2
20260502180528 47 234 6.1 7.0 0.00 0.00 0.00 45 1014.0
20260502170442 47 214 1.7 1.7 0.00 0.00 0.00 45 1014.0
20260502163925 51 281 4.3 5.2 0.00 0.00 0.00 40 1014.3
20260502163422 48 218 2.6 2.6 0.00 0.00 0.00 47 1014.2
20260502162920 48 11 5.2 6.1 0.00 0.00 0.00 46 1014.1
20260502162416 48 256 5.2 7.0 0.00 0.00 0.00 44 1014.3
20260502161913 47 212 3.5 5.2 0.00 0.00 0.00 48 1014.1
20260502161409 48 67 4.3 6.1 0.00 0.00 0.00 45 1014.3
20260502160907 49 308 2.6 2.6 0.00 0.00 0.00 46 1014.1
20260502160405 47 239 2.6 5.2 0.00 0.00 0.00 47 1014.4
20260502152340 47 215 4.3 6.1 0.00 0.00 0.00 46 1014.0
20260502151838 46 258 6.1 7.8 0.00 0.00 0.00 46 1014.4
20260502151334 46 233 5.2 7.0 0.00 0.00 0.00 45 1014.2
20260502150832 47 315 4.3 6.1 0.00 0.00 0.00 48 1014.3
20260502150328 47 284 4.3 6.1 0.00 0.00 0.00 48 1014.1
20260502130716 42 347 3.5 5.2 0.00 0.00 0.00 70 1014.8
20260502130214 42 250 3.5 4.3 0.00 0.00 0.00 70 1014.8
20260502123700 42 289 0.9 1.7 0.00 0.00 0.00 71 1014.7
20260502123156 42 241 2.6 4.3 0.00 0.00 0.00 71 1014.4
20260502122653 42 221 1.7 2.6 0.00 0.00 0.00 71 1014.6
20260502122149 42 315 2.6 4.3 0.00 0.00 0.00 71 1014.6
20260502121648 42 334 2.6 4.3 0.00 0.00 0.00 72 1014.6
20260502121145 41 322 4.3 5.2 0.00 0.00 0.00 73 1014.7
20260502120641 41 228 2.6 2.6 0.00 0.00 0.00 76 1014.7
20260502120139 41 109 1.7 2.6 0.00 0.00 0.00 77 1014.5
20260502115636 41 305 2.6 5.2 0.00 0.00 0.00 77 1014.5
20260502115132 41 250 3.5 4.3 0.00 0.00 0.00 77 1014.7
20260502114628 41 247 3.5 5.2 0.00 0.00 0.00 78 1014.5
20260502114126 41 315 6.1 7.0 0.00 0.00 0.00 79 1014.7
20260502113623 41 280 1.7 2.6 0.00 0.00 0.00 80 1014.8
20260502113121 40 306 2.6 4.3 0.00 0.00 0.00 81 1014.6
20260502112619 40 292 1.7 1.7 0.00 0.00 0.00 82 1014.5
20260502112116 39 299 3.5 4.3 0.00 0.00 0.00 83 1014.5
20260502111613 39 202 0.9 0.9 0.00 0.00 0.00 83 1014.5
20260502111111 39 236 1.7 1.7 0.00 0.00 0.00 84 1014.5
20260502110608 39 193 1.7 2.6 0.00 0.00 0.00 85 1014.4
20260502110106 39 211 0.9 1.7 0.00 0.00 0.00 85 1014.5
20260502105603 39 279 3.5 4.3 0.00 0.00 0.00 86 1014.4
20260502105100 39 265 2.6 2.6 0.00 0.00 0.00 86 1014.2
20260502104557 39 182 0.9 0.9 0.00 0.00 0.00 86 1014.0
20260502104054 39 186 0.9 0.9 0.00 0.00 0.00 86 1014.1
20260502103552 39 231 2.6 4.3 0.00 0.00 0.00 87 1014.1
20260502103050 39 312 6.1 7.0 0.00 0.00 0.00 87 1013.9
20260502102546 39 310 3.5 5.2 0.00 0.00 0.00 88 1013.8
20260502102043 39 324 2.6 2.6 0.00 0.00 0.00 89 1014.1
20260502101541 39 273 1.7 1.7 0.00 0.00 0.00 89 1014.0
20260502101039 39 301 1.7 2.6 0.00 0.00 0.00 90 1013.9
20260502100537 39 289 2.6 4.3 0.00 0.00 0.00 90 1013.8
20260502091512 39 144 0.0 0.9 0.00 0.00 0.00 89 1013.6
20260502091009 39 176 0.0 0.9 0.00 0.00 0.00 89 1013.4
20260502090506 40 150 0.0 0.9 0.00 0.00 0.00 89 1013.4
20260502071401 40 182 0.0 0.0 0.00 0.00 0.00 91 1012.8
20260502070859 40 313 2.6 2.6 0.00 0.00 0.00 91 1013.0
20260502070356 40 180 0.9 0.9 0.00 0.00 0.00 91 1012.8
20260502065855 40 300 2.6 2.6 0.00 0.00 0.00 91 1012.8
20260502065353 40 297 3.5 4.3 0.00 0.00 0.00 91 1012.9
20260502064850 40 263 1.7 2.6 0.00 0.00 0.00 91 1012.9
20260502064348 40 254 1.7 1.7 0.00 0.00 0.00 92 1012.9
20260502063845 40 232 1.7 1.7 0.00 0.00 0.00 92 1012.9
20260502063343 40 317 2.6 2.6 0.00 0.00 0.00 92 1012.7
20260502062840 40 194 0.9 0.9 0.00 0.00 0.00 92 1013.0
20260502062337 40 213 2.6 2.6 0.00 0.00 0.00 92 1012.9
20260502061836 40 147 0.9 0.9 0.00 0.00 0.00 92 1012.9
20260502061333 40 286 0.9 1.7 0.00 0.00 0.00 92 1012.9
20260502060829 40 26 1.7 1.7 0.00 0.00 0.00 92 1012.9
20260502060324 40 281 2.6 2.6 0.00 0.00 0.00 92 1013.3
20260502055822 40 228 2.6 4.3 0.00 0.00 0.00 92 1012.9
20260502055320 40 307 3.5 4.3 0.00 0.00 0.00 92 1012.7
20260502054819 40 318 2.6 6.1 0.00 0.00 0.00 92 1012.6
20260502054316 40 313 5.2 7.0 0.00 0.00 0.00 92 1012.8
20260502053814 40 195 0.9 0.9 0.00 0.00 0.00 93 1012.8
20260502053311 41 303 3.5 6.1 0.00 0.00 0.00 93 1012.7
20260502052809 41 181 0.9 0.9 0.00 0.00 0.00 93 1012.8
20260502052306 41 314 5.2 7.0 0.00 0.00 0.00 93 1012.8
20260502051804 41 159 0.0 0.9 0.00 0.00 0.00 93 1012.8
20260502051303 41 90 1.7 1.7 0.00 0.00 0.00 93 1012.8
20260502050758 41 221 2.6 2.6 0.00 0.00 0.00 93 1013.0
20260502050254 41 205 0.9 0.9 0.00 0.00 0.00 93 1012.9
20260502045752 41 287 0.9 1.7 0.00 0.00 0.00 93 1013.1
20260502045248 41 142 0.0 0.0 0.00 0.00 0.00 93 1013.0
20260502044745 41 284 0.9 1.7 0.00 0.00 0.00 93 1013.1
20260502044241 41 216 2.6 4.3 0.00 0.00 0.00 93 1012.8
20260502043739 42 282 4.3 5.2 0.00 0.00 0.00 93 1013.0
20260502043237 42 191 0.9 0.9 0.00 0.00 0.00 93 1012.8
20260502042736 42 222 1.7 2.6 0.00 0.00 0.00 93 1012.8
20260502042233 42 338 3.5 4.3 0.00 0.00 0.00 93 1012.8
20260502041731 42 289 1.7 2.6 0.00 0.00 0.00 93 1012.9
20260502041228 42 231 1.7 2.6 0.00 0.00 0.00 93 1012.9
20260502040725 42 259 1.7 1.7 0.00 0.00 0.00 93 1012.6
20260502040222 43 319 2.6 4.3 0.00 0.00 0.00 93 1012.7
20260502035718 43 182 0.0 0.0 0.00 0.12 0.12 93 1012.6
20260502035215 42 177 0.0 0.0 0.00 0.12 0.12 93 1012.4
20260502034712 42 160 0.0 0.0 0.00 0.12 0.12 93 1012.3
20260502034211 42 175 0.0 0.0 0.00 0.12 0.12 93 1012.6
20260502033708 42 181 0.0 0.0 0.00 0.12 0.12 93 1012.6
20260502033206 42 173 0.0 0.0 0.00 0.12 0.12 93 1012.4
20260502032702 42 181 0.0 0.9 0.00 0.12 0.12 93 1012.4
20260502032158 42 183 0.0 0.0 0.00 0.12 0.12 93 1012.5
20260502031656 42 182 0.0 0.0 0.00 0.12 0.12 93 1012.4
20260502031154 42 193 0.9 0.9 0.05 0.12 0.12 93 1012.6
20260502030652 43 204 0.9 1.7 0.05 0.12 0.12 93 1012.6
20260502030150 43 194 1.7 1.7 0.00 0.11 0.11 93 1012.7
20260502025647 44 196 0.9 0.9 0.00 0.11 0.11 93 1012.6
20260502025145 44 186 0.9 0.9 0.00 0.11 0.11 93 1012.6
20260502024642 44 167 0.0 0.0 0.00 0.11 0.11 93 1012.6
20260502024140 44 183 0.0 0.0 0.00 0.11 0.11 92 1012.8
20260502023638 44 195 0.9 0.9 0.00 0.11 0.11 92 1012.7
20260502023135 44 183 0.0 0.0 0.00 0.11 0.11 92 1012.7
20260502022632 44 181 0.0 0.0 0.07 0.11 0.11 92 1012.7
20260502022129 44 191 0.9 1.7 0.12 0.11 0.11 92 1012.7
20260502021626 44 184 0.9 0.9 0.05 0.10 0.10 92 1012.9
20260502021123 44 182 0.0 0.0 0.00 0.09 0.09 92 1012.5
20260502020621 44 183 0.0 0.0 0.00 0.09 0.09 92 1012.8
20260502020117 44 183 0.0 0.0 0.00 0.09 0.09 92 1012.7
20260502015615 44 179 0.0 0.0 0.00 0.09 0.09 91 1012.6
20260502015112 44 168 0.0 0.0 0.00 0.09 0.09 91 1012.6
20260502014609 44 167 0.9 0.9 0.00 0.09 0.09 91 1012.5
20260502014106 44 171 0.0 0.9 0.07 0.09 0.09 91 1012.6
20260502013601 44 176 0.0 0.0 0.00 0.08 0.08 91 1012.6
20260502013057 44 174 0.0 0.0 0.00 0.08 0.08 91 1012.6
20260502012555 44 176 0.0 0.0 0.00 0.08 0.08 91 1012.6
20260502012053 44 175 0.0 0.0 0.07 0.08 0.08 91 1012.5
20260502011549 44 171 0.0 0.0 0.07 0.08 0.08 90 1012.5
20260502011046 44 165 0.9 0.9 0.00 0.07 0.07 90 1012.6
20260502010543 44 187 0.0 0.0 0.00 0.07 0.07 90 1012.3
20260502010039 44 187 0.0 0.0 0.05 0.07 0.07 90 1012.5
20260502005537 44 187 0.0 0.0 0.00 0.06 0.06 89 1012.4
20260502005035 44 187 0.0 0.0 0.07 0.06 0.06 89 1012.4
20260502004530 44 187 0.0 0.0 0.07 0.06 0.06 89 1012.3
20260502004027 44 187 0.0 0.0 0.00 0.05 0.05 89 1012.3
20260502003525 44 187 0.0 0.0 0.05 0.05 0.05 88 1012.3
20260502003022 44 187 0.0 0.0 0.05 0.05 0.05 88 1012.3
20260502002518 44 187 0.0 0.0 0.00 0.04 0.04 88 1012.3
20260502002016 44 187 0.0 0.0 0.00 0.04 0.04 87 1012.1
20260502001513 44 187 0.0 0.0 0.07 0.04 0.04 87 1012.2
20260502001010 44 188 0.0 0.0 0.07 0.04 0.04 87 1012.3
20260502000509 44 187 0.0 0.0 0.00 0.03 0.03 86 1012.4